| time (UTC) | temp F | wind direction | speed MPH | gust MPH | rain 1hr in | rain 24hr in | rain mn in | humidity % | barometer mb |
| 20260504043603 | 39 | 282 | 0.0 | 0.0 | 0.00 | 0.00 | 0.00 | 83 | 1012.6 |
| 20260504042625 | 40 | 282 | 0.0 | 0.0 | 0.00 | 0.00 | 0.00 | 81 | 1012.4 |
| 20260504041604 | 40 | 282 | 0.0 | 0.0 | 0.00 | 0.00 | 0.00 | 81 | 1012.2 |
| 20260504040603 | 40 | 282 | 0.0 | 0.0 | 0.00 | 0.00 | 0.00 | 79 | 1012.2 |
| 20260504035603 | 41 | 282 | 0.0 | 0.0 | 0.00 | 0.00 | 0.00 | 78 | 1012.2 |
| 20260504034603 | 41 | 282 | 0.0 | 0.0 | 0.00 | 0.00 | 0.00 | 77 | 1012.2 |
| 20260504033603 | 41 | 282 | 0.0 | 0.0 | 0.00 | 0.00 | 0.00 | 76 | 1012.2 |
| 20260504032604 | 42 | 282 | 0.0 | 0.0 | 0.00 | 0.00 | 0.00 | 75 | 1012.2 |
| 20260504031603 | 42 | 282 | 0.0 | 0.0 | 0.00 | 0.00 | 0.00 | 74 | 1012.2 |
| 20260504030603 | 43 | 282 | 0.0 | 0.0 | 0.00 | 0.00 | 0.00 | 73 | 1012.3 |
| 20260504025603 | 43 | 282 | 0.0 | 0.0 | 0.00 | 0.00 | 0.00 | 72 | 1012.3 |
| 20260504024603 | 43 | 282 | 0.0 | 0.0 | 0.00 | 0.00 | 0.00 | 72 | 1012.3 |
| 20260504023603 | 44 | 282 | 0.0 | 0.0 | 0.00 | 0.00 | 0.00 | 70 | 1012.2 |
| 20260504022604 | 44 | 282 | 0.0 | 0.0 | 0.00 | 0.00 | 0.00 | 68 | 1012.3 |
| 20260504021603 | 45 | 282 | 0.0 | 0.0 | 0.00 | 0.00 | 0.00 | 67 | 1012.4 |
| 20260504020603 | 46 | 282 | 0.0 | 0.0 | 0.00 | 0.00 | 0.00 | 66 | 1012.3 |
| 20260504015603 | 46 | 282 | 0.0 | 0.0 | 0.00 | 0.00 | 0.00 | 64 | 1012.3 |
| 20260504014603 | 47 | 282 | 0.0 | 0.0 | 0.00 | 0.00 | 0.00 | 63 | 1012.2 |
| 20260504013603 | 48 | 282 | 0.0 | 0.0 | 0.00 | 0.00 | 0.00 | 61 | 1012.1 |
| 20260504012603 | 49 | 282 | 0.0 | 0.0 | 0.00 | 0.00 | 0.00 | 60 | 1012.1 |
| 20260504011604 | 50 | 282 | 0.0 | 0.0 | 0.00 | 0.00 | 0.00 | 55 | 1011.9 |
| 20260504010603 | 50 | 282 | 0.0 | 0.0 | 0.00 | 0.00 | 0.00 | 55 | 1011.7 |
| 20260504005602 | 51 | 282 | 0.0 | 0.0 | 0.00 | 0.00 | 0.00 | 52 | 1011.6 |
| 20260504004603 | 53 | 282 | 0.0 | 0.0 | 0.00 | 0.00 | 0.00 | 53 | 1011.4 |
| 20260504003603 | 54 | 282 | 0.0 | 0.0 | 0.00 | 0.00 | 0.00 | 48 | 1011.3 |
| 20260504002603 | 55 | 282 | 0.0 | 2.0 | 0.00 | 0.00 | 0.00 | 44 | 1011.2 |
| 20260504001625 | 56 | 282 | 0.0 | 8.0 | 0.00 | 0.00 | 0.00 | 44 | 1011.0 |
| 20260504000603 | 56 | 282 | 0.0 | 6.0 | 0.00 | 0.00 | 0.00 | 42 | 1010.9 |
| 20260503234624 | 57 | 286 | 0.0 | 9.0 | 0.00 | 0.00 | 0.00 | 43 | 1010.6 |
| 20260503233603 | 58 | 288 | 0.0 | 7.0 | 0.00 | 0.00 | 0.00 | 39 | 1010.5 |
| 20260503232603 | 58 | 288 | 0.0 | 9.0 | 0.00 | 0.00 | 0.00 | 36 | 1010.5 |
| 20260503231603 | 58 | 281 | 4.0 | 9.0 | 0.00 | 0.00 | 0.00 | 36 | 1010.4 |
| 20260503230603 | 58 | 319 | 0.0 | 5.0 | 0.00 | 0.00 | 0.00 | 36 | 1010.3 |
| 20260503225604 | 59 | 308 | 2.0 | 9.0 | 0.00 | 0.00 | 0.00 | 37 | 1010.2 |
| 20260503224603 | 59 | 312 | 2.0 | 9.0 | 0.00 | 0.00 | 0.00 | 34 | 1010.2 |
| 20260503223603 | 59 | 326 | 0.0 | 9.0 | 0.00 | 0.00 | 0.00 | 34 | 1010.1 |
| 20260503222603 | 59 | 257 | 7.0 | 15.0 | 0.00 | 0.00 | 0.00 | 32 | 1010.2 |
| 20260503221603 | 59 | 315 | 1.0 | 12.0 | 0.00 | 0.00 | 0.00 | 34 | 1010.1 |
| 20260503220603 | 60 | 307 | 5.0 | 11.0 | 0.00 | 0.00 | 0.00 | 32 | 1010.2 |
| 20260503215603 | 60 | 286 | 5.0 | 9.0 | 0.00 | 0.00 | 0.00 | 32 | 1010.3 |
| 20260503214603 | 59 | 282 | 5.0 | 13.0 | 0.00 | 0.00 | 0.00 | 31 | 1010.1 |
| 20260503213603 | 59 | 324 | 4.0 | 9.0 | 0.00 | 0.00 | 0.00 | 31 | 1010.1 |
| 20260503212603 | 59 | 285 | 3.0 | 14.0 | 0.00 | 0.00 | 0.00 | 34 | 1010.1 |
| 20260503211603 | 58 | 339 | 3.0 | 12.0 | 0.00 | 0.00 | 0.00 | 33 | 1010.2 |
| 20260503210602 | 58 | 274 | 8.0 | 13.0 | 0.00 | 0.00 | 0.00 | 32 | 1010.1 |
| 20260503205603 | 58 | 236 | 5.0 | 18.0 | 0.00 | 0.00 | 0.00 | 34 | 1010.0 |
| 20260503204603 | 58 | 275 | 7.0 | 15.0 | 0.00 | 0.00 | 0.00 | 32 | 1010.3 |
| 20260503203624 | 57 | 252 | 4.0 | 13.0 | 0.00 | 0.00 | 0.00 | 34 | 1010.1 |
| 20260503202603 | 57 | 329 | 5.0 | 14.0 | 0.00 | 0.00 | 0.00 | 34 | 1010.3 |
| 20260503195603 | 57 | 343 | 3.0 | 15.0 | 0.00 | 0.00 | 0.00 | 36 | 1010.3 |
| 20260503194603 | 58 | 298 | 7.0 | 16.0 | 0.00 | 0.00 | 0.00 | 36 | 1010.4 |
| 20260503193602 | 57 | 329 | 4.0 | 16.0 | 0.00 | 0.00 | 0.00 | 34 | 1010.4 |
| 20260503192603 | 57 | 282 | 7.0 | 16.0 | 0.00 | 0.00 | 0.00 | 36 | 1010.7 |
| 20260503190647 | 56 | 4 | 6.0 | 15.0 | 0.00 | 0.00 | 0.00 | 37 | 1010.8 |
| 20260503185604 | 57 | 275 | 6.0 | 15.0 | 0.00 | 0.00 | 0.00 | 35 | 1010.7 |
| 20260503184625 | 56 | 268 | 7.0 | 15.0 | 0.00 | 0.00 | 0.00 | 40 | 1010.6 |
| 20260503183604 | 55 | 338 | 6.0 | 14.0 | 0.00 | 0.00 | 0.00 | 38 | 1010.9 |
| 20260503182604 | 55 | 302 | 7.0 | 12.0 | 0.00 | 0.00 | 0.00 | 38 | 1011.0 |
| 20260503181625 | 55 | 329 | 5.0 | 16.0 | 0.00 | 0.00 | 0.00 | 38 | 1011.2 |
| 20260503180625 | 55 | 323 | 6.0 | 20.0 | 0.00 | 0.00 | 0.00 | 38 | 1011.1 |
| 20260503175604 | 54 | 337 | 4.0 | 13.0 | 0.00 | 0.00 | 0.00 | 40 | 1011.2 |
| 20260503174604 | 55 | 302 | 8.0 | 16.0 | 0.00 | 0.00 | 0.00 | 40 | 1011.3 |
| 20260503173604 | 54 | 287 | 7.0 | 14.0 | 0.00 | 0.00 | 0.00 | 42 | 1011.4 |
| 20260503172604 | 53 | 311 | 6.0 | 14.0 | 0.00 | 0.00 | 0.00 | 41 | 1011.6 |
| 20260503171604 | 52 | 277 | 6.0 | 14.0 | 0.00 | 0.00 | 0.00 | 44 | 1011.5 |
| 20260503170604 | 53 | 335 | 7.0 | 14.0 | 0.00 | 0.00 | 0.00 | 44 | 1011.9 |
| 20260503150627 | 52 | 334 | 6.0 | 14.0 | 0.00 | 0.00 | 0.00 | 40 | 1012.2 |
| 20260503130625 | 48 | 338 | 4.0 | 11.0 | 0.00 | 0.00 | 0.00 | 58 | 1012.1 |
| 20260503110604 | 43 | 345 | 1.0 | 11.0 | 0.00 | 0.00 | 0.00 | 65 | 1011.7 |
| 20260503081604 | 45 | 343 | 1.0 | 9.0 | 0.00 | 0.01 | 0.00 | 60 | 1010.7 |
| 20260503080604 | 45 | 348 | 2.0 | 6.0 | 0.00 | 0.01 | 0.00 | 60 | 1010.6 |
| 20260503072604 | 46 | 349 | 1.0 | 5.0 | 0.00 | 0.01 | 0.00 | 60 | 1010.5 |
| 20260503071604 | 46 | 349 | 2.0 | 4.0 | 0.00 | 0.01 | 0.00 | 59 | 1010.6 |
| 20260503070604 | 46 | 349 | 0.0 | 5.0 | 0.00 | 0.01 | 0.00 | 60 | 1010.6 |
| 20260503054604 | 48 | 349 | 0.0 | 6.0 | 0.00 | 0.01 | 0.00 | 54 | 1010.9 |
| 20260503053604 | 48 | 349 | 1.0 | 5.0 | 0.00 | 0.01 | 0.00 | 53 | 1011.0 |
| 20260503052603 | 48 | 349 | 1.0 | 6.0 | 0.00 | 0.01 | 0.00 | 52 | 1011.2 |
| 20260503051604 | 48 | 347 | 1.0 | 11.0 | 0.00 | 0.01 | 0.00 | 52 | 1011.2 |
| 20260503050604 | 48 | 354 | 2.0 | 8.0 | 0.00 | 0.01 | 0.00 | 51 | 1011.2 |
| 20260503045604 | 49 | 354 | 0.0 | 8.0 | 0.00 | 0.01 | 0.00 | 52 | 1011.2 |
| 20260503044604 | 49 | 359 | 2.0 | 6.0 | 0.00 | 0.01 | 0.00 | 51 | 1011.3 |